Elko, NV

7:20 AM PST on December 15, 2017 (GMT -0800)
Elko Regional

Weather History for KEKO - October, 2011

Change the Weather History Date:

Monday, October 3, 2011

  Actual Average Record
Temperature  
Mean Temperature 69 °F 52 °F  
Max Temperature 83 °F 71 °F 88 °F (1980)
Min Temperature 55 °F 33 °F 4 °F (1891)
Degree Days  
Heating Degree Days 0 13  
Month to date heating degree days 0 39  
Since 1 July heating degree days 72 297  
Cooling Degree Days 4 0  
Month to date cooling degree days 8 0  
Year to date cooling degree days 468 383  
Growing Degree Days 18 (Base 50)    
Moisture  
Dew Point 38 °F    
Average Humidity 35    
Maximum Humidity 55    
Minimum Humidity 15    
Precipitation  
Precipitation T in 0.02 in 1.20 in (1939)
Month to date precipitation T 0.06  
Year to date precipitation 6.39 6.91  
Snow  
Snow 0.00 in 0.00 in 5.00 in (1898)
Month to date snowfall 0.0 0.0  
Since 1 July snowfall 0.0 0.1  
Since 1 September snowfall 0.0 0.1  
Snow Depth 0.00 in    
Sea Level Pressure  
Sea Level Pressure 29.80 in    
Wind  
Wind Speed 11 mph (SSW)    
Max Wind Speed 29 mph    
Max Gust Speed 44 mph    
Visibility 10 miles    
Events      
T = Trace of Precipitation, MM = Missing Value Source: NWS Daily Summary

Daily Weather History Graph

Daily Weather History Graph

Search for Another Location

Airport or City:

Trip Planner

Search our weather history database for the weather conditions in past years. The results will help you decide how hot, cold, wet, or windy it might be!

Date:

Astronomy

Oct. 03, 2011 Rise Set
Actual Time 6:41 AM PDT 6:22 PM PDT
Civil Twilight 6:14 AM PDT 6:49 PM PDT
Nautical Twilight 5:42 AM PDT 7:21 PM PDT
Astronomical Twilight 5:10 AM PDT 7:53 PM PDT
Moon 1:44 PM PDT (10/3) 11:28 PM PDT (10/3)
Length of Visible Light 12h 35m
Length of Day
11h 40m
Waxing Crescent, 46% of the Moon is Illuminated
Oct 3
Waxing Crescent
Oct 3
First Quarter
Oct 11
Full
Oct 19
Last Quarter
Oct 26
New

Hourly Weather History & Observations

Time (PDT) Temp. Dew Point Humidity Pressure Visibility Wind Dir Wind Speed Gust Speed Precip Events Conditions
12:56 AM 59.0 °F 33.1 °F 38% 29.86 in 10.0 mi Calm Calm - N/A   Clear
1:56 AM 59.0 °F 33.1 °F 38% 29.87 in 10.0 mi Calm Calm - N/A   Clear
2:56 AM 55.9 °F 35.1 °F 45% 29.87 in 10.0 mi Variable 3.5 mph - N/A   Clear
3:56 AM 60.1 °F 36.0 °F 41% 29.86 in 10.0 mi WSW 5.8 mph - N/A   Clear
4:56 AM 62.1 °F 37.9 °F 41% 29.86 in 10.0 mi West 10.4 mph 18.4 mph N/A   Clear
5:56 AM 60.1 °F 37.9 °F 44% 29.87 in 10.0 mi West 9.2 mph - N/A   Clear
6:56 AM 55.9 °F 37.9 °F 51% 29.91 in 10.0 mi Calm Calm - N/A   Clear
7:56 AM 57.2 °F 39.2 °F 51% 30.04 in 10.0 mi East 4.6 mph - N/A   Clear
8:56 AM 69.1 °F 39.9 °F 35% 29.88 in 10.0 mi Calm Calm - N/A   Clear
9:56 AM 73.4 °F 42.8 °F 33% 30.01 in 10.0 mi South 18.4 mph 27.6 mph N/A   Clear
10:56 AM 77.0 °F 42.1 °F 29% 29.83 in 10.0 mi South 20.7 mph 33.4 mph N/A   Clear
11:56 AM 79.0 °F 39.9 °F 25% 29.80 in 10.0 mi SSW 16.1 mph 27.6 mph N/A   Scattered Clouds
12:56 PM 81.0 °F 37.9 °F 21% 29.76 in 10.0 mi SW 13.8 mph 32.2 mph N/A   Partly Cloudy
1:56 PM 82.0 °F 34.0 °F 18% 29.71 in 10.0 mi South 10.4 mph 35.7 mph N/A   Partly Cloudy
2:56 PM 82.9 °F 30.9 °F 15% 29.69 in 10.0 mi South 13.8 mph 33.4 mph N/A   Clear
3:56 PM 79.0 °F 32.0 °F 18% 29.67 in 10.0 mi SSW 20.7 mph 28.8 mph N/A   Partly Cloudy
4:56 PM 77.0 °F 34.0 °F 21% 29.65 in 10.0 mi South 17.3 mph 25.3 mph 0.00 in   Clear
5:56 PM 73.0 °F 37.0 °F 27% 29.67 in 10.0 mi SSE 19.6 mph 29.9 mph N/A   Partly Cloudy
6:56 PM 71.1 °F 39.9 °F 32% 29.71 in 10.0 mi SSE 20.7 mph 35.7 mph N/A   Clear
7:56 PM 66.2 °F 41.0 °F 40% 29.85 in 10.0 mi South 16.1 mph 24.2 mph N/A   Clear
8:56 PM 63.0 °F 42.1 °F 46% 29.71 in 10.0 mi South 9.2 mph - N/A   Clear
9:56 PM 59.0 °F 42.1 °F 53% 29.71 in 10.0 mi WSW 8.1 mph - N/A   Clear
10:56 PM 63.0 °F 43.0 °F 48% 29.70 in 10.0 mi South 15.0 mph 24.2 mph N/A   Clear
11:56 PM 60.1 °F 44.1 °F 55% 29.70 in 10.0 mi SSW 5.8 mph - N/A   Overcast